CUBESAT XI-V

Last updated on Sun Jan 18 2026 00:03:07 GMT+0000 (Coordinated Universal Time)

1 28895U 05043F 26017.67305403 .00001328 00000+0 21940-3 0 9990 2 28895 98.2753 170.3694 0013647 326.5755 33.4589 14.72054791 79606
UTC large
Height (km)
Speed (km/s)
/
Latitude / Longitude
Inclination (degrees)
Orbital Period (minutes)
Azimuth
Elevation
Range (km)
Doppler Factor

Next 0 passes for location: London (51.5072 / 0.1276)

Sorry there are no passes over London.